sat.trackr.live / text

‹ back to catalog

STARLINK-32785

NORAD 62531 · 2025-004W

PAYLOAD ACTIVE UNKNOWN

§ Identity

Operator
Country
US
Launch date
2025-01-08
Launch site
AFETR
Launch vehicle
Mass (kg)
RCS (m²)

Purposes: comms

External: N2YO · Heavens-Above · Gunter

§ Orbital elements

Epoch: 2026-05-24T17:13:28.681248Z

Period
94.27 min
Inclination
42.9986°
Eccentricity
0.0001643
Mean motion
15.27598081 rev/d
Perigee alt
481.9 km
Apogee alt
484.1 km
Semi-major
6,861.1 km
B*
5.8641e-4
RAAN
150.7230°
Arg perigee
270.7949°
Mean anomaly
89.2714°
Rev number
7,808

§ Raw data

STARLINK-327851 62531U 25004W   26144.71769307  .00015919  00000+0  58641-3 0  99962 62531  42.9986 150.7230 0001643 270.7949  89.2714 15.27598081 78087

JSON: /api/v1/satellites/62531 · /tle

For live sub-satellite position, see the globe view (requires WebGL).

§ Visibility from observer

Set your observer location to see the next 7 days of passes ≥ 10°. The values pass through the URL so the page stays shareable.

No JS? Fill the form by hand. The geolocation button needs JavaScript.